Wind_Speed
7 8 7 7 6 5 8 10 8 8 8 7 6 5 3 4 4 3 3 5 4 5 5 5 5 4 2 1 3 8 3 8 8 6 5 4 1 5 6 8 11 12 12 9 3
9 9 9 7 7 6 8 11 9 8 8 7 7 5 3 6 4 2 3 4 3 4 6 5 6 4 2 5 5 6 5 6 4 4 5 7 4 8 7 10 10 13 16 12 3
9 10 9 8 8 7 9 12 10 9 9 7 7 6 4 7 4 3 3 4 3 3 7 6 6 7 5 10 2 6 4 3 4 2 10 10 6 6 7 10 9 11 17 9 5
9 10 9 9 9 8 9 12 11 10 9 8 7 7 7 8 3 2 2 4 5 3 6 7 9 11 10 13 6 3 3 6 2 6 8 12 7 6 6 9 12 16 14 2 7
10 10 10 9 9 9 9 13 12 11 10 9 8 10 6 4 4 2 3 5 8 8 6 4 8 12 10 11 8 5 3 4 4 3 8 12 5 5 6 8 12 17 8 6 12
11 11 10 10 10 10 10 13 14 12 10 9 8 10 8 2 3 4 5 10 11 9 6 5 8 8 5 9 9 7 5 5 2 8 7 6 8 6 6 8 12 14 6 9 10
13 12 11 11 11 10 11 14 15 13 11 10 8 9 10 7 5 6 10 12 11 10 5 1 6 6 9 6 8 7 8 3 4 7 8 5 10 6 7 8 11 12 8 8 15
13 13 12 11 12 11 12 15 16 14 12 11 8 8 8 7 9 9 10 10 8 6 6 2 3 6 11 12 8 5 6 7 4 9 7 8 11 13 6 5 8 11 12 9 12
13 14 13 12 13 12 13 16 17 15 13 11 10 10 8 10 10 12 10 11 10 7 7 2 3 6 6 9 5 10 3 5 4 10 12 9 11 13 5 2 7 9 11 10 9
11 14 14 13 13 12 13 16 17 16 14 12 13 9 9 12 14 11 15 13 9 8 5 5 6 4 3 8 5 1 2 4 6 3 10 12 9 10 2 2 3 5 7 10 8
10 13 15 15 14 12 14 17 17 17 17 15 13 12 12 13 14 12 14 11 9 8 6 6 8 4 8 7 1 2 4 7 5 6 10 11 15 5 4 4 4 7 9 8 6
11 13 16 16 15 14 16 18 18 18 17 16 14 15 15 19 18 14 13 8 7 7 8 9 8 14 2 1 3 8 10 8 4 6 8 4 7 5 6 6 2 4 3 5 7
12 13 17 17 16 15 17 18 17 16 14 17 17 19 14 18 17 13 14 8 1 3 7 11 10 11 1 3 6 6 11 8 5 5 10 3 7 3 8 6 4 4 3 4 2
13 13 18 18 17 18 19 18 16 13 9 13 17 19 20 19 14 14 14 8 3 10 6 6 8 6 4 6 3 2 11 4 5 7 4 13 3 9 9 2 5 7 7 4 1
14 13 18 20 19 20 21 16 13 9 2 4 17 15 19 17 5 10 9 9 10 7 6 9 8 5 6 2 4 5 9 5 3 8 9 8 5 3 12 7 8 9 9 6 3
15 13 19 21 21 23 21 16 10 5 6 3 8 17 21 17 8 3 14 12 11 12 8 12 10 7 4 3 5 4 2 2 4 9 5 6 12 3 5 1 4 6 6 6 6
15 15 20 24 24 27 26 15 6 6 5 1 11 11 18 19 13 3 9 11 12 6 2 8 11 7 7 7 7 5 4 1 2 2 6 3 10 10 4 4 3 6 2 6 8
15 17 21 26 26 28 27 18 6 2 7 5 7 13 18 19 18 15 10 12 14 12 11 3 4 6 8 5 5 5 8 9 6 4 2 5 5 2 3 4 12 9 4 6 10
15 16 22 27 27 28 26 20 6 3 2 1 4 11 14 20 13 9 13 13 20 13 6 3 4 7 7 6 7 6 7 9 8 3 2 4 3 3 3 4 15 9 7 6 7
13 16 23 27 28 27 27 22 9 2 4 7 8 4 10 22 15 8 5 11 18 11 9 7 7 5 4 8 9 12 7 5 6 4 3 2 3 6 7 8 8 10 10 10 11
12 18 26 28 29 29 29 26 9 1 4 3 6 1 1 13 20 15 6 8 10 15 14 8 8 3 3 6 5 10 9 5 6 3 6 3 3 7 7 12 11 12 13 11 8
14 18 26 28 30 32 29 26 14 7 6 3 1 8 4 2 18 18 15 13 11 9 12 8 5 8 5 3 4 11 5 3 3 5 4 3 3 4 7 14 14 14 11 9 6
16 19 25 27 28 27 27 25 23 9 6 12 5 6 3 4 8 16 19 14 14 15 11 9 7 5 5 8 10 5 5 4 3 5 6 5 4 7 10 15 15 13 9 5 3
16 16 23 26 27 23 23 21 19 17 6 14 15 12 11 7 11 11 14 14 18 16 15 19 10 6 6 6 2 7 5 5 3 3 6 8 8 16 16 15 13 8 6 6 8
17 15 23 27 28 21 18 14 19 11 6 4 22 11 12 12 12 21 20 13 16 23 13 10 6 6 6 4 9 7 5 3 3 5 5 6 12 19 18 14 12 11 10 9 13
13 18 21 13 24 24 18 18 18 10 11 7 8 17 9 20 16 12 10 16 22 21 16 19 10 6 4 6 7 6 5 3 1 4 6 5 12 20 18 16 14 12 10 15 20
12 16 17 15 20 20 21 21 23 14 12 10 8 6 14 11 8 9 12 17 22 28 28 21 15 13 13 8 8 3 2 2 5 7 4 4 8 17 19 18 13 11 16 19 25
Wind_Direction
204 202 217 214 207 201 188 181 174 166 163 163 156 167 141 104 119 165 184 191 214 191 193 195 190 184 47 242 155 167 133 81 65 48 248 182 212 4 352 11 19 8 356 342 271
210 205 214 219 214 201 195 188 181 174 168 169 160 160 137 123 100 153 174 191 173 167 177 199 209 215 246 174 141 137 108 71 87 278 250 212 316 331 348 355 3 2 350 343 235
205 205 213 221 215 213 198 193 189 179 173 171 162 158 141 144 118 112 102 148 149 179 204 193 202 211 226 200 187 134 161 144 89 152 217 214 272 315 325 344 349 344 343 337 189
196 205 214 222 214 218 206 195 195 184 178 173 168 159 131 164 209 122 180 178 197 124 162 190 207 208 203 213 193 155 153 155 165 217 236 234 257 338 318 317 341 343 341 67 172
208 209 213 221 214 220 214 198 196 190 183 177 175 170 154 138 192 176 197 198 161 140 133 128 199 206 201 195 189 186 186 266 202 260 236 220 241 316 293 298 348 349 5 131 152
214 217 215 214 214 219 215 203 195 192 188 183 187 194 194 188 201 192 155 145 156 169 134 79 99 173 148 188 198 212 206 255 230 197 186 215 261 309 324 318 356 2 53 124 131
215 222 217 213 212 216 215 203 195 194 190 191 195 200 210 219 205 181 165 144 155 177 168 146 86 174 186 219 222 209 195 265 227 215 194 252 281 271 309 337 5 26 62 110 127
217 219 219 210 211 213 214 200 196 196 193 198 196 200 208 199 193 168 167 173 196 193 180 165 162 168 201 237 214 201 235 225 231 242 262 286 294 324 322 345 10 29 58 77 98
217 217 215 210 210 212 210 200 198 199 199 202 194 202 202 177 184 192 175 188 197 202 221 236 219 210 191 208 223 221 239 229 236 239 251 274 291 334 350 37 52 35 39 53 66
218 216 212 208 206 211 208 199 200 202 204 208 198 203 193 182 190 200 195 196 189 202 223 254 254 231 174 134 106 168 237 273 278 298 255 258 295 305 177 137 26 38 42 45 63
223 215 210 205 202 206 204 199 201 210 208 205 205 195 191 176 177 190 207 201 209 222 246 245 256 134 113 134 179 203 283 283 291 273 275 260 268 311 183 180 132 92 68 60 82
226 215 209 203 199 200 199 198 203 212 212 215 211 199 186 189 187 182 193 194 213 239 254 232 184 129 63 312 271 274 281 286 322 254 251 254 262 238 157 140 71 320 345 19 27
223 216 209 200 196 196 196 197 205 218 230 227 222 202 212 202 190 201 186 183 164 244 167 175 182 197 267 308 316 291 288 296 280 260 225 240 246 233 151 142 113 78 343 313 312
221 219 207 198 192 194 194 196 206 223 256 241 229 212 213 211 213 198 199 212 208 162 203 227 224 252 305 339 340 1 351 249 202 235 220 220 258 201 160 136 122 131 112 103 2
220 225 205 197 188 192 194 192 207 212 307 242 209 210 213 217 208 212 199 212 210 168 224 229 224 295 295 118 2 8 3 175 158 197 239 239 238 209 208 216 157 160 152 136 120
222 228 206 193 188 191 190 186 194 202 249 167 191 205 205 212 209 282 191 198 197 239 259 219 236 267 171 225 283 288 39 200 199 234 248 248 211 277 211 269 162 209 211 219 236
227 230 206 190 187 190 195 191 196 231 346 12 188 200 212 214 212 208 197 220 219 231 223 220 243 251 199 222 205 224 196 147 289 258 228 289 209 238 310 300 206 191 262 302 284
232 228 200 193 187 192 198 189 219 284 281 314 198 206 204 205 207 236 237 237 223 249 301 270 202 204 198 193 202 228 267 216 205 202 254 180 216 76 327 277 179 211 239 266 266
233 220 193 193 187 193 193 193 210 338 260 345 127 194 200 208 202 226 241 214 218 240 247 287 269 210 214 233 242 246 226 235 240 179 164 195 230 239 246 180 185 213 255 279 284
224 201 190 189 187 191 192 198 199 282 194 136 69 82 197 193 216 209 206 205 219 228 234 266 294 200 220 231 231 227 259 221 202 137 220 243 239 182 188 189 198 210 234 253 280
205 189 189 187 187 192 197 198 189 127 167 162 9 49 161 210 223 211 232 222 234 232 237 268 260 194 241 198 187 214 237 216 173 186 157 165 229 249 228 198 195 216 237 240 236
191 184 189 188 188 198 203 201 193 144 182 318 354 9 40 277 206 228 250 226 220 216 228 266 241 278 247 208 199 182 197 263 242 196 166 168 200 272 219 197 204 224 220 216 219
185 187 188 189 196 202 210 211 214 216 178 223 285 302 300 314 250 230 231 250 220 208 224 227 224 284 158 125 108 141 160 143 173 151 172 165 207 190 192 190 197 210 206 202 281
178 181 186 189 198 199 214 216 218 226 262 202 197 295 291 276 245 243 248 241 208 188 190 223 231 247 286 307 321 139 140 143 146 184 206 219 226 199 198 203 206 208 233 272 291
177 182 185 198 197 198 205 204 214 210 232 218 218 273 272 280 259 266 261 225 212 199 201 195 246 273 300 176 152 151 163 186 250 279 260 294 237 201 195 203 220 233 248 286 310
180 181 187 199 195 203 195 196 187 172 173 157 184 219 264 269 274 282 212 207 190 191 174 180 256 287 268 191 170 171 139 124 322 286 276 304 192 194 204 220 236 258 290 313 322
174 185 187 187 195 202 211 185 164 183 178 179 247 251 244 301 293 218 190 184 181 176 190 230 249 273 277 214 204 236 291 250 273 278 287 254 222 214 218 228 243 282 306 317 320
Height
3155 3156 3158 3159 3159 3159 3161 3163 3164 3166 3168 3169 3170 3171 3171 3172 3171 3171 3170 3171 3171 3171 3171 3172 3174 3175 3176 3176 3177 3177 3178 3178 3178 3178 3179 3179 3180 3180 3180 3180 3179 3178 3176 3175 3175
3155 3155 3157 3158 3159 3159 3161 3162 3164 3166 3168 3169 3170 3171 3171 3172 3171 3170 3171 3169 3171 3171 3173 3173 3174 3175 3175 3176 3177 3177 3178 3178 3178 3178 3178 3180 3181 3181 3182 3181 3180 3178 3176 3174 3175
3154 3155 3156 3157 3158 3159 3160 3162 3164 3166 3167 3169 3170 3171 3172 3172 3172 3171 3171 3170 3171 3172 3173 3173 3174 3175 3176 3176 3177 3177 3178 3179 3180 3179 3178 3179 3181 3182 3181 3181 3181 3179 3177 3174 3175
3152 3154 3155 3156 3157 3159 3159 3161 3164 3166 3167 3169 3170 3171 3172 3172 3174 3171 3171 3170 3171 3173 3173 3173 3174 3175 3176 3177 3177 3178 3179 3180 3180 3180 3179 3179 3181 3182 3181 3182 3181 3179 3176 3175 3176
3151 3152 3154 3155 3156 3157 3159 3161 3163 3165 3167 3168 3170 3171 3172 3172 3172 3171 3171 3170 3172 3173 3173 3173 3172 3174 3176 3177 3178 3179 3180 3181 3181 3180 3179 3180 3183 3183 3182 3182 3181 3179 3177 3177 3177
3150 3152 3153 3154 3155 3156 3157 3160 3162 3164 3166 3168 3169 3170 3171 3172 3171 3170 3170 3170 3172 3173 3174 3173 3171 3174 3175 3176 3178 3179 3181 3181 3181 3182 3182 3184 3185 3184 3184 3183 3182 3179 3177 3178 3179
3149 3151 3151 3152 3154 3155 3156 3158 3161 3163 3166 3167 3168 3169 3170 3171 3170 3170 3170 3171 3172 3173 3174 3175 3173 3173 3175 3175 3177 3178 3181 3182 3181 3183 3184 3184 3185 3184 3185 3184 3183 3181 3180 3180 3179
3147 3149 3150 3150 3152 3153 3155 3157 3160 3162 3164 3166 3167 3168 3168 3170 3170 3171 3171 3171 3171 3172 3173 3174 3173 3173 3175 3175 3176 3178 3180 3181 3182 3182 3184 3185 3184 3184 3184 3185 3184 3183 3182 3182 3181
3145 3148 3149 3149 3151 3152 3154 3156 3159 3161 3163 3165 3166 3166 3168 3169 3170 3171 3171 3171 3171 3172 3172 3173 3174 3172 3174 3175 3176 3178 3179 3180 3182 3183 3184 3184 3183 3184 3184 3185 3185 3184 3183 3182 3182
3142 3145 3147 3147 3149 3151 3153 3155 3158 3160 3162 3163 3164 3167 3167 3168 3169 3170 3171 3171 3172 3172 3173 3172 3172 3172 3173 3175 3178 3178 3179 3180 3182 3184 3183 3184 3184 3185 3185 3185 3185 3185 3184 3184 3184
3141 3143 3145 3146 3148 3150 3153 3155 3159 3161 3160 3162 3163 3164 3165 3167 3167 3169 3171 3173 3172 3172 3172 3171 3171 3172 3174 3176 3177 3178 3179 3180 3181 3182 3183 3183 3184 3185 3185 3185 3185 3185 3185 3185 3185
3139 3140 3143 3144 3147 3148 3151 3153 3156 3158 3159 3160 3161 3163 3164 3164 3166 3167 3171 3172 3171 3172 3171 3172 3170 3173 3176 3177 3178 3179 3179 3180 3180 3180 3183 3183 3183 3184 3185 3185 3185 3185 3185 3186 3186
3136 3138 3140 3142 3145 3148 3150 3153 3155 3157 3158 3159 3159 3162 3164 3166 3166 3168 3169 3171 3172 3172 3171 3172 3174 3175 3176 3178 3178 3179 3178 3178 3180 3179 3181 3183 3183 3183 3185 3185 3185 3185 3184 3184 3186
3133 3135 3138 3140 3146 3147 3150 3152 3155 3157 3158 3157 3157 3160 3162 3163 3165 3166 3168 3172 3172 3174 3173 3174 3175 3175 3176 3176 3177 3176 3176 3176 3177 3179 3181 3182 3184 3182 3183 3184 3184 3185 3185 3186 3187
3131 3133 3136 3139 3142 3146 3150 3152 3154 3157 3157 3155 3154 3157 3159 3164 3166 3166 3168 3170 3171 3174 3176 3175 3174 3174 3174 3175 3176 3177 3177 3176 3177 3179 3181 3181 3184 3180 3181 3182 3184 3185 3185 3187 3187
3128 3130 3133 3138 3140 3145 3149 3151 3154 3158 3153 3152 3152 3154 3158 3161 3164 3164 3166 3169 3171 3172 3172 3173 3173 3173 3173 3174 3176 3176 3177 3178 3179 3181 3180 3179 3182 3178 3179 3181 3183 3184 3185 3186 3187
3126 3128 3131 3135 3139 3143 3147 3151 3155 3153 3153 3153 3152 3153 3156 3159 3162 3164 3165 3166 3168 3170 3170 3170 3170 3170 3171 3174 3175 3176 3178 3180 3183 3182 3178 3177 3179 3178 3179 3180 3182 3183 3184 3185 3185
3123 3125 3129 3133 3136 3141 3146 3152 3153 3149 3150 3150 3150 3152 3154 3157 3160 3162 3163 3165 3165 3167 3167 3167 3168 3168 3169 3172 3173 3175 3176 3177 3181 3181 3176 3176 3177 3177 3176 3176 3178 3181 3182 3183 3183
3120 3122 3127 3131 3135 3140 3146 3148 3149 3149 3149 3149 3149 3150 3152 3155 3159 3160 3160 3161 3163 3166 3167 3166 3164 3165 3167 3169 3172 3171 3172 3173 3172 3175 3176 3176 3176 3176 3175 3176 3177 3180 3181 3181 3180
3117 3120 3124 3129 3134 3139 3144 3145 3149 3148 3148 3149 3148 3150 3151 3155 3157 3158 3159 3159 3162 3163 3166 3166 3165 3164 3165 3168 3169 3169 3171 3171 3171 3175 3177 3174 3173 3173 3174 3175 3177 3178 3179 3178 3177
3115 3118 3121 3127 3132 3138 3140 3144 3148 3148 3148 3149 3148 3148 3150 3151 3154 3155 3157 3159 3160 3161 3164 3165 3166 3164 3164 3165 3165 3167 3167 3168 3169 3169 3170 3175 3172 3171 3172 3174 3175 3177 3176 3175 3175
3113 3117 3120 3125 3132 3134 3138 3142 3146 3148 3148 3148 3148 3147 3148 3150 3150 3152 3153 3155 3156 3159 3160 3163 3164 3163 3163 3164 3164 3164 3165 3166 3166 3168 3168 3168 3170 3168 3169 3171 3173 3174 3174 3174 3173
3112 3115 3118 3124 3128 3133 3137 3140 3144 3147 3148 3147 3145 3147 3145 3146 3149 3149 3150 3153 3154 3156 3157 3160 3162 3161 3161 3164 3162 3163 3164 3164 3165 3165 3165 3167 3168 3167 3168 3169 3170 3171 3172 3173 3172
3112 3114 3118 3122 3128 3133 3135 3139 3142 3145 3146 3145 3146 3146 3146 3145 3147 3146 3147 3148 3151 3154 3155 3158 3160 3160 3163 3162 3162 3162 3163 3163 3164 3163 3164 3164 3164 3165 3167 3168 3169 3170 3171 3170 3170
3111 3112 3116 3120 3125 3130 3133 3135 3140 3143 3144 3146 3146 3146 3143 3144 3143 3142 3145 3148 3148 3151 3154 3156 3157 3160 3159 3158 3160 3161 3162 3162 3162 3162 3162 3161 3160 3162 3165 3166 3167 3168 3169 3168 3168
3111 3112 3116 3119 3124 3128 3131 3134 3139 3142 3142 3142 3146 3143 3139 3139 3141 3141 3141 3144 3145 3150 3152 3155 3155 3157 3158 3159 3159 3160 3161 3160 3160 3160 3159 3159 3160 3162 3163 3164 3165 3165 3166 3164 3162
3111 3113 3116 3118 3122 3125 3128 3133 3136 3139 3140 3141 3145 3147 3141 3140 3139 3139 3143 3145 3147 3150 3154 3154 3153 3154 3156 3158 3158 3160 3159 3159 3159 3159 3159 3159 3160 3160 3161 3162 3163 3164 3162 3160 3158